CW8690 Weather Reports


Display with metric or nautical units.
time (UTC)temp
F
wind
direction
speed
MPH
gust
MPH
rain 1hr
in
rain 24hr
in
rain mn
in
humidity
%
barometer
mb
20260901162636 93 162 5.0 11.0 0.00 0.00 0.00 65 1013.3
20260901161134 92 113 6.0 11.0 0.00 0.00 0.00 67 1013.2
20260901155634 92 152 4.0 10.0 0.00 0.00 0.00 68 1013.2
20260901154130 91 154 5.0 11.0 0.00 0.00 0.00 70 1013.3
20260901152630 90 223 6.0 12.0 0.00 0.00 0.00 72 1013.3
20260901151124 89 166 8.0 15.0 0.00 0.00 0.00 73 1013.2
20260901145623 88 167 7.0 10.0 0.00 0.00 0.00 77 1013.2
20260901144123 87 163 7.0 10.0 0.00 0.00 0.00 81 1013.1
20260901142620 86 178 6.0 11.0 0.00 0.00 0.00 84 1013.2
20260901141124 85 169 4.0 8.0 0.00 0.00 0.00 86 1013.2
20260901135622 84 188 3.0 6.0 0.00 0.00 0.00 89 1013.1
20260901134119 82 160 2.0 5.0 0.00 0.00 0.00 94 1013.1
20260901132640 80 169 1.0 2.0 0.00 0.00 0.00 97 1012.9
20260901131140 79 170 0.0 0.0 0.00 0.00 0.00 98 1012.7
20260901125654 77 171 0.0 0.0 0.00 0.00 0.00 98 1012.6
20260901124124 76 171 0.0 0.0 0.00 0.00 0.00 97 1012.4
20260901122625 76 171 0.0 0.0 0.00 0.00 0.00 96 1012.4
20260901121123 77 173 0.0 0.0 0.00 0.00 0.00 96 1012.4
20260901115640 77 173 0.0 0.0 0.00 0.00 0.00 96 1012.1
20260901114121 77 173 0.0 0.0 0.00 0.00 0.00 96 1012.2
20260901112620 77 173 0.0 0.0 0.00 0.00 0.00 96 1012.2
20260901111140 77 173 0.0 0.0 0.00 0.00 0.00 95 1012.2
20260901105622 77 173 0.0 0.0 0.00 0.00 0.00 95 1012.1
20260901104123 78 173 0.0 0.0 0.00 0.00 0.00 95 1012.2
20260901102624 78 173 0.0 0.0 0.00 0.00 0.00 94 1012.2
20260901101121 79 173 0.0 0.0 0.00 0.00 0.00 94 1012.1
20260901095642 79 173 0.0 0.0 0.00 0.00 0.00 94 1012.2
20260901094141 79 173 0.0 0.0 0.00 0.00 0.00 93 1012.2
20260901092634 80 173 0.0 0.0 0.00 0.00 0.00 93 1012.1
20260901091121 80 172 0.0 1.0 0.00 0.00 0.00 93 1012.2
20260901085644 80 156 0.0 3.0 0.00 0.00 0.00 94 1012.3
20260901084122 79 154 1.0 2.0 0.00 0.00 0.00 93 1012.2
20260901082623 79 153 1.0 2.0 0.00 0.00 0.00 93 1012.2
20260901081159 79 153 0.0 0.0 0.00 0.00 0.00 93 1012.4
20260901075630 79 153 0.0 2.0 0.00 0.00 0.00 93 1012.5
20260901074128 79 153 1.0 3.0 0.00 0.00 0.00 93 1012.6
20260901072630 80 153 1.0 3.0 0.00 0.00 0.00 93 1012.6
20260901071127 80 150 0.0 0.0 0.00 0.00 0.00 92 1012.5
20260901065630 80 150 0.0 0.0 0.00 0.00 0.00 92 1012.6
20260901064131 80 150 0.0 0.0 0.00 0.00 0.00 91 1012.7
20260901062632 81 150 1.0 3.0 0.00 0.00 0.00 91 1012.8
20260901061130 81 151 0.0 1.0 0.00 0.00 0.00 91 1013.0
20260901055630 81 151 2.0 5.0 0.00 0.00 0.00 91 1013.0
20260901054127 81 168 2.0 3.0 0.00 0.00 0.00 91 1012.9
20260901052627 81 172 2.0 4.0 0.00 0.00 0.00 90 1013.0
20260901051147 82 136 1.0 4.0 0.00 0.00 0.00 90 1013.2
20260901045620 82 139 2.0 5.0 0.00 0.00 0.00 90 1013.1
20260901044117 82 138 2.0 5.0 0.00 0.00 0.00 90 1013.1
20260901042618 82 135 0.0 3.0 0.00 0.00 0.00 89 1013.1
20260901041121 83 134 1.0 3.0 0.00 0.00 0.00 88 1013.3
20260901035624 83 130 3.0 5.0 0.00 0.00 0.00 88 1013.2
20260901034141 83 128 3.0 7.0 0.00 0.00 0.00 87 1013.1
20260901032655 83 123 4.0 8.0 0.00 0.00 0.00 87 1013.0
20260901031126 83 132 3.0 9.0 0.00 0.00 0.00 86 1012.8
20260901025626 84 146 3.0 8.0 0.00 0.00 0.00 86 1012.5
20260901024124 84 136 4.0 8.0 0.00 0.00 0.00 85 1012.4
20260901022624 84 127 4.0 9.0 0.00 0.00 0.00 84 1012.1
20260901021123 84 144 4.0 9.0 0.00 0.00 0.00 84 1011.9
20260901015645 85 128 6.0 11.0 0.00 0.00 0.00 83 1011.8
20260901014123 85 129 5.0 10.0 0.00 0.00 0.00 83 1011.5
20260901011124 86 135 9.0 16.0 0.00 0.00 0.00 81 1011.1
20260901005643 86 121 7.0 14.0 0.00 0.00 0.00 80 1010.9
20260901004118 86 121 6.0 17.0 0.00 0.00 0.00 79 1010.9
20260901002619 87 84 8.0 17.0 0.00 0.00 0.00 78 1010.8
20260901001159 88 129 7.0 14.0 0.00 0.00 0.00 77 1010.7
20260831235637 88 130 10.0 19.0 0.00 0.00 0.00 76 1010.6
20260831234146 89 95 9.0 15.0 0.00 0.00 0.00 74 1010.6
20260831232625 90 86 7.0 16.0 0.00 0.00 0.00 71 1010.7
20260831231122 91 91 6.0 19.0 0.00 0.00 0.00 70 1010.6
20260831225624 91 68 8.0 17.0 0.00 0.00 0.00 69 1010.6
20260831224122 92 96 8.0 17.0 0.00 0.00 0.00 68 1010.7
20260831222642 93 123 7.0 19.0 0.00 0.00 0.00 67 1010.7
20260831221119 93 130 10.0 17.0 0.00 0.00 0.00 65 1010.8
20260831215617 94 73 10.0 16.0 0.00 0.00 0.00 64 1010.9
20260831164123 95 126 6.0 13.0 0.00 0.00 0.00 61 1013.2